Location: Marcé
(47.5801°N, 0.3280°W)
Time: 07:25:18
(UTC+01:00)

Altair - Pass Details

Date: 16 December 2021
Orbit: 1501 x 1683 km, 47.2° (Epoch: 21 January)

Event Time Altitude Azimuth Distance (km) Brightness Sun altitude
Rises 15:22:49 0° 260° (W) 4,838 10.8 11.9°
Reaches altitude 10° 15:25:58 10° 260° (W) 3,828 10.4 11.6°
Maximum altitude 15:35:43 87° 173° (S) 1,570 7.8 10.6°
Drops below altitude 10° 15:45:05 10° 86° (E) 3,693 9.1 9.7°
Sets 15:48:05 0° 86° (E) 4,660 9.6 9.3°
